Regional Weather Roundup
Issued by NWS Cleveland, OH

Home | Current Version | Previous Version | Text Only | Print | Product List | Glossary Off
Versions: 1 2 3 4 5 6 7 8 9 10 11 12 13 14 15 16 17 18 19 20 21 22 23 24 25 26 27 28 29 30 31 32 33 34 35 36 37 38 39 40 41 42 43 44 45 46 47 48 49 50

000
ASUS41 KCLE 022202
RWRCLE
OHIO REGIONAL WEATHER ROUNDUP
NATIONAL WEATHER SERVICE CLEVELAND, OH
600 PM EDT MON MAY 02 2016

NOTE: "FAIR" INDICATES FEW OR NO CLOUDS BELOW 12,000 FEET WITH NO
SIGNIFICANT WEATHER AND/OR OBSTRUCTIONS TO VISIBILITY.

OHZ001>008-015>018-024>027-034-035-043-044-022300-
   NORTHWEST OHIO

CITY           SKY/WX    TMP DP  RH WIND       PRES   REMARKS
DEFIANCE       CLOUDY    51  47  86 N7        29.99F
FINDLAY        CLOUDY    54  43  66 NE7       29.96F
TOLEDO EXPRESS CLOUDY    52  45  77 N9        29.98F
TOLEDO EXEC    CLOUDY    53  45  74 NE7       30.00S
LIMA           CLOUDY    52  47  83 NE7       29.96F
$$

OHZ009>014-019>023-028>033-038-089-022300-
   NORTHEAST OHIO

CITY           SKY/WX    TMP DP  RH WIND       PRES   REMARKS
CLE-HOPKINS    CLOUDY    50  43  77 N10       30.01F
CLE-LAKEFRONT  CLOUDY    49  44  83 NE10      29.98F
CUY CO. ARPT   CLOUDY    52  45  76 N7        29.98F
LORAIN-ELYRIA  CLOUDY    49  42  77 NE9       29.99S
ASHTABULA      CLOUDY    48  43  82 N5        29.98F
AKRON-CANTON   CLOUDY    52  45  77 N8        29.95F
WOOSTER        CLOUDY    50  45  83 N6        29.97F
MANSFIELD      CLOUDY    50  46  86 N10       29.97R
YOUNGSTOWN     CLOUDY    49  44  83 NW7       29.96F
$$

OHZ042-051>053-060>062-070>072-077>081-022300-
  SOUTHWEST OHIO

CITY           SKY/WX    TMP DP  RH WIND       PRES   REMARKS
CINC-COVINGTON CLOUDY    64  52  64 W9        29.92S
CINC-LUNKEN    PTSUNNY   64  53  67 W6        29.91F
HAMILTON       CLOUDY    63  55  75 N9        29.92F
DAYTON         CLOUDY    55  50  83 N9        29.95S
WRIGHT-PAT AFB NOT AVBL
DAYTON GENERAL CLOUDY    59  51  75 N10       29.91F
WILMINGTON     CLOUDY    61  54  77 N10       29.91F
$$

OHZ036-037-039>041-045>050-054>059-063>069-073>076-082>088-022300-
  CENTRAL AND SOUTHEAST OHIO

CITY           SKY/WX    TMP DP  RH WIND       PRES   REMARKS
COLUMBUS       CLOUDY    57  51  80 N10       29.93S
OSU AIRPORT    CLOUDY    56  50  80 N10       29.94F
BOLTON FIELD   PTSUNNY   55  52  88 N9        29.94S
RICKENBACK AFB CLOUDY    59  51  76 N8        29.93R
NEWARK         CLOUDY    59  50  72 N6        29.92S
MARION         CLOUDY    52  47  83 N10       29.97R
LANCASTER      CLOUDY    61  52  72 N6        29.92F
ZANESVILLE     CLOUDY    60  50  69 N7        29.92S
NEW PHILLY     CLOUDY    56  47  71 N7        29.95S
$$



USA.gov is the U.S. government's official web portal to all federal, state and local government web resources and services.